Volver al catálogo

FENGYUN 1C DEB

ActivoPO
NORAD 36682·DEBRIS·🇨🇳 China

Lanzado May 10, 1999 desde Taiyuan Satellite Launch Center

Loading…

Próximos Pases (próximas 24 horas)

TLE

ActualizadoSource: Space-Track

Época: Sep 12, 2026, 02:43 UTC

1 36682U 99025DZC 26255.11339045  .00000734  00000-0  71868-3 0  9993
2 36682  98.4634 131.9528 0231059 266.7623  90.7071 13.70784474651373

Sigue FENGYUN 1C DEB en tiempo real con AllMySat

Download on the App Store